TimeEST,TemperatureF,Dew PointF,Humidity,Sea Level PressureIn,VisibilityMPH,Wind Direction,Wind SpeedMPH,Gust SpeedMPH,PrecipitationIn,Events,Conditions,WindDirDegrees,DateUTC
12:53 AM,50.0,46.9,89,30.20,10.0,NNE,9.2,-,0.01,,Overcast,20,2012-12-13 05:53:00
1:53 AM,50.0,46.0,86,30.19,10.0,NNE,9.2,-,N/A,,Overcast,30,2012-12-13 06:53:00
2:53 AM,50.0,46.9,89,30.19,10.0,NNE,4.6,-,N/A,,Overcast,30,2012-12-13 07:53:00
3:53 AM,51.1,46.9,86,30.20,10.0,North,6.9,-,N/A,,Overcast,360,2012-12-13 08:53:00
4:53 AM,51.1,46.0,83,30.21,10.0,North,10.4,-,N/A,,Overcast,10,2012-12-13 09:53:00
5:53 AM,51.1,46.0,83,30.23,10.0,North,10.4,-,N/A,,Overcast,10,2012-12-13 10:53:00
6:53 AM,50.0,46.0,86,30.25,10.0,North,11.5,-,N/A,,Overcast,10,2012-12-13 11:53:00
7:25 AM,50.0,46.4,87,30.24,9.0,North,13.8,-,N/A,,Overcast,360,2012-12-13 12:25:00
7:53 AM,50.0,45.0,83,30.28,10.0,North,13.8,-,N/A,,Overcast,10,2012-12-13 12:53:00
8:00 AM,50.0,44.6,82,30.26,10.0,NNE,11.5,-,N/A,,Overcast,20,2012-12-13 13:00:00
8:53 AM,50.0,45.0,83,30.30,10.0,North,12.7,-,N/A,,Overcast,10,2012-12-13 13:53:00
9:53 AM,48.9,44.1,83,30.32,10.0,NNE,12.7,-,N/A,,Overcast,20,2012-12-13 14:53:00
10:53 AM,50.0,45.0,83,30.32,10.0,North,9.2,-,N/A,,Overcast,10,2012-12-13 15:53:00
11:53 AM,51.1,44.1,77,30.32,10.0,North,15.0,-,N/A,,Overcast,10,2012-12-13 16:53:00
12:53 PM,51.1,43.0,74,30.31,10.0,NNE,13.8,19.6,N/A,,Overcast,30,2012-12-13 17:53:00
1:53 PM,52.0,43.0,71,30.30,10.0,NNE,10.4,-,N/A,,Mostly Cloudy,20,2012-12-13 18:53:00
2:53 PM,51.1,43.0,74,30.30,10.0,NNE,11.5,-,N/A,,Overcast,30,2012-12-13 19:53:00
3:53 PM,50.0,43.0,77,30.30,10.0,NNE,10.4,-,N/A,,Overcast,30,2012-12-13 20:53:00
4:38 PM,50.0,42.8,76,30.27,10.0,NE,11.5,-,N/A,,Overcast,40,2012-12-13 21:38:00
4:53 PM,48.9,43.0,80,30.30,10.0,NE,10.4,-,N/A,,Overcast,40,2012-12-13 21:53:00
8:53 PM,48.0,42.1,80,30.33,10.0,ENE,6.9,-,N/A,,Overcast,60,2012-12-14 01:53:00
9:53 PM,48.0,43.0,83,30.34,7.0,NE,9.2,-,N/A,,Overcast,50,2012-12-14 02:53:00
10:53 PM,46.9,43.0,86,30.34,9.0,ENE,6.9,-,N/A,,Overcast,60,2012-12-14 03:53:00
11:53 PM,46.9,43.0,86,30.35,8.0,ENE,8.1,-,N/A,,Overcast,60,2012-12-14 04:53:00